Vorticity
7 7 9 9 9 9 7 5 5 5 6 7 6 6 6 5 7 8 9 10 9 9 8 5 6 4 4 6 7 7 5 4
8 11 11 8 6 5 5 8 8 8 7 5 5 5 5 5 3 3 4 2 3 6 9 10 9 8 9 7 7 10 7 8
7 7 4 7 6 7 7 7 4 4 5 5 6 6 7 5 5 3 4 5 20 21 20 18 15 15 11 13 12 12 11 10
8 9 6 6 5 5 7 5 3 3 3 3 4 5 4 4 5 6 13 21 20 13 13 8 6 6 7 6 7 9 11 7
11 5 7 6 6 5 4 4 5 4 5 6 7 3 4 5 4 11 18 17 15 12 13 14 14 12 10 10 11 9 11 10
4 7 5 5 6 4 5 5 5 8 5 7 1 7 6 12 22 25 18 13 16 19 21 18 19 16 18 16 13 10 10 12
3 5 6 6 7 7 4 4 6 4 6 3 6 10 19 18 18 16 16 20 13 11 12 8 11 15 7 30 18 20 11 8
3 5 6 8 6 7 6 7 7 7 3 7 9 16 14 15 15 14 13 10 11 12 8 13 10 12 4 16 28 11 20 26
6 8 10 11 7 8 8 8 6 4 7 8 8 18 15 15 10 5 11 8 6 7 3 2 7 15 18 14 31 9 15 25
5 8 7 9 8 10 7 5 7 4 10 10 10 16 17 10 11 10 0 12 13 9 20 26 10 16 8 9 24 29 23 14
10 6 7 7 9 8 8 5 4 7 6 11 11 12 11 13 11 11 9 16 11 11 12 17 14 18 10 23 34 15 8 12
8 8 7 13 11 11 5 5 7 4 5 9 13 17 8 18 19 14 19 14 7 10 17 13 17 13 12 12 25 8 19 21
5 13 10 8 10 7 6 5 3 -0 10 10 20 7 21 3 5 10 7 8 0 10 13 12 15 16 14 8 34 21 26 26
14 5 6 15 18 5 3 3 2 5 10 16 16 14 17 13 9 7 10 11 10 9 17 16 16 14 17 14 19 32 41 12
15 13 14 7 -4 3 2 1 6 15 18 14 13 14 13 12 12 18 17 17 16 16 24 21 17 14 14 17 5 19 20 35
-15 -9 -8 -8 2 6 12 6 7 21 18 15 13 13 8 4 16 14 12 15 20 25 25 21 14 15 15 15 15 10 8 22
16 8 3 2 6 2 7 20 12 18 0 15 18 8 8 9 19 15 14 13 29 27 24 11 9 14 14 9 12 10 9 8
2 -2 5 3 3 16 25 18 15 14 13 10 2 8 1 24 16 17 18 26 32 19 8 3 7 12 13 10 8 9 10 13
1 18 21 14 21 29 11 10 11 14 28 5 4 2 25 19 21 14 17 35 15 -1 19 18 7 7 5 6 6 8 9 10
Height
5787 5787 5786 5785 5784 5783 5783 5782 5781 5780 5780 5779 5777 5776 5774 5772 5770 5769 5768 5765 5761 5759 5757 5755 5752 5751 5749 5751 5751 5749 5749 5752
5780 5778 5777 5775 5775 5774 5773 5773 5771 5770 5768 5767 5767 5766 5762 5761 5759 5756 5753 5750 5747 5743 5742 5740 5738 5737 5735 5733 5733 5733 5731 5734
5772 5771 5768 5768 5766 5765 5764 5763 5761 5761 5758 5757 5755 5754 5751 5749 5745 5741 5738 5735 5730 5725 5724 5722 5721 5720 5719 5717 5716 5715 5714 5715
5764 5763 5761 5759 5757 5757 5755 5753 5751 5750 5747 5745 5742 5739 5737 5732 5727 5724 5719 5715 5710 5706 5704 5702 5701 5700 5700 5699 5699 5698 5697 5697
5754 5752 5751 5749 5748 5746 5744 5742 5740 5738 5735 5732 5729 5724 5721 5716 5712 5707 5703 5701 5697 5689 5688 5685 5684 5682 5682 5681 5680 5679 5680 5679
5743 5742 5741 5740 5737 5736 5735 5731 5729 5726 5723 5719 5715 5710 5707 5701 5696 5692 5688 5684 5681 5675 5673 5669 5667 5665 5663 5662 5662 5661 5661 5663
5732 5733 5731 5729 5727 5725 5724 5721 5718 5714 5710 5706 5702 5698 5693 5688 5683 5679 5674 5670 5666 5662 5659 5656 5653 5650 5647 5645 5643 5643 5645 5646
5722 5722 5720 5717 5715 5713 5712 5709 5707 5703 5700 5695 5691 5686 5680 5675 5670 5665 5661 5658 5654 5650 5646 5642 5638 5635 5632 5629 5628 5628 5630 5630
5711 5711 5709 5706 5704 5702 5701 5697 5694 5691 5688 5684 5680 5675 5669 5663 5658 5654 5650 5646 5643 5639 5635 5630 5626 5622 5618 5615 5612 5614 5615 5615
5698 5699 5698 5695 5692 5690 5689 5686 5682 5679 5676 5672 5667 5662 5657 5652 5646 5642 5638 5634 5630 5626 5621 5616 5613 5610 5606 5602 5600 5599 5600 5602
5688 5687 5687 5683 5679 5678 5677 5674 5670 5667 5663 5659 5654 5649 5644 5639 5634 5629 5625 5622 5618 5614 5609 5604 5600 5597 5594 5591 5588 5588 5588 5588
5675 5676 5673 5670 5667 5667 5664 5661 5658 5655 5650 5645 5641 5637 5631 5626 5621 5617 5614 5611 5607 5602 5597 5593 5589 5586 5583 5581 5578 5578 5577 5578
5662 5663 5662 5659 5656 5654 5652 5649 5646 5642 5638 5633 5629 5624 5619 5614 5610 5606 5602 5599 5595 5591 5586 5583 5579 5576 5573 5572 5570 5570 5570 5571
5649 5650 5651 5649 5646 5642 5640 5638 5635 5631 5625 5621 5617 5612 5607 5603 5599 5594 5590 5587 5583 5579 5576 5572 5570 5568 5565 5565 5563 5562 5562 5564
5639 5638 5639 5639 5634 5632 5629 5626 5623 5619 5614 5610 5606 5601 5596 5592 5587 5582 5578 5575 5571 5567 5565 5562 5560 5560 5558 5558 5558 5557 5556 5557
5627 5625 5626 5626 5621 5620 5618 5615 5611 5607 5602 5599 5596 5591 5587 5582 5577 5572 5568 5564 5561 5557 5555 5554 5553 5553 5552 5551 5551 5551 5552 5552
5617 5616 5615 5614 5610 5610 5607 5604 5601 5596 5592 5589 5586 5582 5578 5573 5568 5563 5558 5555 5551 5548 5547 5548 5548 5548 5548 5547 5547 5545 5546 5546
5605 5606 5603 5601 5600 5597 5596 5593 5589 5584 5582 5579 5577 5573 5569 5564 5560 5555 5551 5546 5544 5543 5543 5543 5544 5544 5544 5544 5543 5542 5542 5541
5595 5594 5590 5588 5588 5587 5585 5583 5577 5574 5572 5571 5569 5564 5560 5557 5553 5549 5545 5542 5541 5540 5540 5540 5541 5541 5541 5541 5540 5539 5538 5537